| time (UTC) | temp C | wind direction | speed KPH | gust KPH | rain 1hr cm | rain 24hr cm | rain mn cm | humidity % | barometer mb |
| 20260509234535 | 20 | 38 | 4.8 | 11.3 | 0.00 | 0.00 | 0.00 | 64 | 1008.0 |
| 20260509233030 | 21 | 40 | 8.0 | 20.9 | 0.00 | 0.00 | 0.00 | 63 | 1007.9 |
| 20260509231530 | 21 | 23 | 9.7 | 16.1 | 0.00 | 0.00 | 0.00 | 61 | 1007.9 |
| 20260509230100 | 21 | 38 | 9.7 | 17.7 | 0.00 | 0.00 | 0.00 | 61 | 1007.9 |
| 20260509224604 | 21 | 355 | 9.7 | 20.9 | 0.00 | 0.00 | 0.00 | 60 | 1007.8 |
| 20260509223106 | 21 | 65 | 8.0 | 16.1 | 0.00 | 0.00 | 0.00 | 60 | 1007.7 |
| 20260509221605 | 21 | 10 | 12.9 | 20.9 | 0.00 | 0.00 | 0.00 | 61 | 1007.7 |
| 20260509220055 | 21 | 17 | 12.9 | 19.3 | 0.00 | 0.00 | 0.00 | 59 | 1007.8 |
| 20260509214558 | 21 | 26 | 4.8 | 11.3 | 0.00 | 0.00 | 0.00 | 62 | 1007.8 |
| 20260509213051 | 22 | 322 | 11.3 | 22.5 | 0.00 | 0.00 | 0.00 | 60 | 1007.9 |
| 20260509211552 | 21 | 14 | 11.3 | 20.9 | 0.00 | 0.00 | 0.00 | 61 | 1008.0 |
| 20260509210053 | 21 | 32 | 6.4 | 20.9 | 0.00 | 0.00 | 0.00 | 63 | 1007.9 |
| 20260509204551 | 21 | 13 | 12.9 | 22.5 | 0.00 | 0.00 | 0.00 | 62 | 1008.1 |
| 20260509203046 | 21 | 43 | 11.3 | 24.1 | 0.00 | 0.00 | 0.00 | 61 | 1007.9 |
| 20260509201553 | 21 | 110 | 16.1 | 24.1 | 0.00 | 0.00 | 0.00 | 61 | 1008.0 |
| 20260509200054 | 21 | 76 | 3.2 | 12.9 | 0.00 | 0.00 | 0.00 | 60 | 1008.0 |
| 20260509194543 | 21 | 14 | 9.7 | 17.7 | 0.00 | 0.00 | 0.00 | 62 | 1008.0 |
| 20260509193039 | 21 | 51 | 9.7 | 25.7 | 0.00 | 0.00 | 0.00 | 64 | 1008.1 |
| 20260509191539 | 21 | 71 | 9.7 | 22.5 | 0.00 | 0.00 | 0.00 | 62 | 1008.2 |
| 20260509190038 | 21 | 360 | 14.5 | 19.3 | 0.00 | 0.00 | 0.00 | 62 | 1008.0 |
| 20260509184534 | 20 | 38 | 8.0 | 17.7 | 0.00 | 0.00 | 0.00 | 65 | 1008.2 |
| 20260509183101 | 20 | 63 | 9.7 | 19.3 | 0.00 | 0.00 | 0.00 | 68 | 1008.1 |
| 20260509181601 | 19 | 75 | 4.8 | 14.5 | 0.00 | 0.00 | 0.00 | 67 | 1008.2 |
| 20260509180025 | 18 | 82 | 4.8 | 12.9 | 0.00 | 0.00 | 0.00 | 71 | 1008.3 |
| 20260509174522 | 17 | 46 | 6.4 | 14.5 | 0.00 | 0.00 | 0.00 | 75 | 1008.6 |
| 20260509173019 | 16 | 97 | 1.6 | 11.3 | 0.00 | 0.00 | 0.00 | 80 | 1008.8 |
| 20260509171525 | 16 | 64 | 6.4 | 14.5 | 0.00 | 0.00 | 0.00 | 76 | 1008.9 |
| 20260509170026 | 16 | 47 | 12.9 | 19.3 | 0.00 | 0.00 | 0.00 | 71 | 1008.9 |
| 20260509164516 | 16 | 45 | 8.0 | 24.1 | 0.00 | 0.00 | 0.00 | 71 | 1009.0 |
| 20260509163045 | 17 | 53 | 12.9 | 20.9 | 0.00 | 0.00 | 0.00 | 69 | 1009.0 |
| 20260509161555 | 17 | 52 | 11.3 | 24.1 | 0.00 | 0.00 | 0.00 | 68 | 1008.9 |
| 20260509160016 | 17 | 22 | 16.1 | 24.1 | 0.00 | 0.00 | 0.00 | 68 | 1008.8 |
| 20260509154518 | 17 | 14 | 8.0 | 17.7 | 0.00 | 0.00 | 0.00 | 68 | 1008.8 |
| 20260509153007 | 17 | 30 | 6.4 | 12.9 | 0.00 | 0.00 | 0.00 | 71 | 1008.6 |
| 20260509151506 | 16 | 77 | 6.4 | 14.5 | 0.00 | 0.00 | 0.00 | 69 | 1008.6 |
| 20260509150012 | 16 | 337 | 1.6 | 6.4 | 0.00 | 0.00 | 0.00 | 71 | 1008.7 |
| 20260509144501 | 16 | 337 | 1.6 | 8.0 | 0.00 | 0.00 | 0.00 | 73 | 1008.6 |
| 20260509143101 | 15 | 20 | 0.0 | 0.0 | 0.00 | 0.00 | 0.00 | 71 | 1008.5 |
| 20260509141555 | 15 | 21 | 0.0 | 3.2 | 0.00 | 0.00 | 0.00 | 69 | 1008.7 |
| 20260509134623 | 15 | 21 | 0.0 | 1.6 | 0.00 | 0.00 | 0.00 | 73 | 1008.7 |
| 20260509133049 | 14 | 21 | 0.0 | 3.2 | 0.00 | 0.00 | 0.00 | 73 | 1008.7 |
| 20260509131549 | 14 | 21 | 3.2 | 8.0 | 0.00 | 0.00 | 0.00 | 75 | 1008.6 |
| 20260509130041 | 13 | 27 | 4.8 | 8.0 | 0.00 | 0.00 | 0.00 | 80 | 1008.3 |
| 20260509124535 | 12 | 59 | 0.0 | 0.0 | 0.00 | 0.00 | 0.00 | 85 | 1008.2 |
| 20260509123032 | 12 | 55 | 0.0 | 0.0 | 0.00 | 0.00 | 0.00 | 87 | 1008.7 |
| 20260509121530 | 11 | 55 | 0.0 | 0.0 | 0.00 | 0.00 | 0.00 | 87 | 1008.8 |
| 20260509120028 | 11 | 55 | 0.0 | 0.0 | 0.00 | 0.00 | 0.00 | 88 | 1008.8 |
| 20260509114531 | 11 | 55 | 0.0 | 0.0 | 0.00 | 0.00 | 0.00 | 89 | 1008.6 |
| 20260509113027 | 10 | 55 | 0.0 | 0.0 | 0.00 | 0.00 | 0.00 | 89 | 1008.6 |
| 20260509111524 | 10 | 55 | 0.0 | 0.0 | 0.00 | 0.00 | 0.00 | 88 | 1008.4 |
| 20260509110024 | 10 | 55 | 0.0 | 0.0 | 0.00 | 0.00 | 0.00 | 88 | 1008.3 |
| 20260509104523 | 10 | 55 | 0.0 | 0.0 | 0.00 | 0.00 | 0.00 | 88 | 1008.5 |
| 20260509103023 | 10 | 55 | 0.0 | 0.0 | 0.00 | 0.00 | 0.00 | 88 | 1008.3 |
| 20260509101554 | 10 | 55 | 0.0 | 0.0 | 0.00 | 0.00 | 0.00 | 88 | 1008.2 |
| 20260509100051 | 10 | 55 | 0.0 | 0.0 | 0.00 | 0.00 | 0.00 | 88 | 1008.2 |
| 20260509094549 | 10 | 55 | 0.0 | 0.0 | 0.00 | 0.00 | 0.00 | 88 | 1008.3 |
| 20260509093052 | 10 | 55 | 0.0 | 0.0 | 0.00 | 0.00 | 0.00 | 88 | 1008.4 |
| 20260509091550 | 10 | 56 | 0.0 | 0.0 | 0.00 | 0.00 | 0.00 | 88 | 1008.4 |
| 20260509090047 | 10 | 56 | 0.0 | 0.0 | 0.00 | 0.00 | 0.00 | 88 | 1008.4 |
| 20260509084546 | 10 | 56 | 0.0 | 0.0 | 0.00 | 0.00 | 0.00 | 88 | 1008.4 |
| 20260509083047 | 10 | 55 | 0.0 | 0.0 | 0.00 | 0.00 | 0.00 | 88 | 1008.7 |
| 20260509081548 | 10 | 56 | 0.0 | 0.0 | 0.00 | 0.00 | 0.00 | 88 | 1008.7 |
| 20260509080041 | 10 | 56 | 0.0 | 0.0 | 0.00 | 0.00 | 0.00 | 87 | 1008.7 |
| 20260509074548 | 10 | 57 | 0.0 | 0.0 | 0.00 | 0.00 | 0.00 | 86 | 1008.8 |
| 20260509073037 | 10 | 58 | 0.0 | 0.0 | 0.00 | 0.00 | 0.00 | 85 | 1008.8 |
| 20260509071536 | 10 | 59 | 0.0 | 0.0 | 0.00 | 0.00 | 0.00 | 85 | 1008.8 |
| 20260509070036 | 10 | 56 | 0.0 | 0.0 | 0.00 | 0.00 | 0.00 | 85 | 1009.0 |
| 20260509064541 | 10 | 53 | 0.0 | 0.0 | 0.00 | 0.00 | 0.00 | 87 | 1008.9 |
| 20260509063037 | 10 | 53 | 0.0 | 0.0 | 0.00 | 0.00 | 0.00 | 87 | 1008.8 |
| 20260509061532 | 10 | 53 | 0.0 | 0.0 | 0.00 | 0.00 | 0.00 | 86 | 1008.8 |
| 20260509060030 | 10 | 54 | 0.0 | 0.0 | 0.00 | 0.00 | 0.00 | 85 | 1009.0 |
| 20260509054525 | 10 | 56 | 0.0 | 0.0 | 0.00 | 0.00 | 0.00 | 82 | 1009.0 |
| 20260509053025 | 11 | 56 | 0.0 | 0.0 | 0.00 | 0.00 | 0.00 | 82 | 1009.2 |
| 20260509051526 | 11 | 53 | 0.0 | 0.0 | 0.00 | 0.00 | 0.00 | 83 | 1009.2 |
| 20260509050022 | 11 | 55 | 0.0 | 0.0 | 0.00 | 0.00 | 0.00 | 81 | 1009.2 |
| 20260509044515 | 12 | 54 | 0.0 | 0.0 | 0.00 | 0.00 | 0.00 | 79 | 1009.0 |
| 20260509043013 | 12 | 55 | 0.0 | 0.0 | 0.00 | 0.00 | 0.00 | 79 | 1009.0 |
| 20260509041512 | 12 | 55 | 0.0 | 0.0 | 0.00 | 0.00 | 0.00 | 78 | 1009.2 |
| 20260509040010 | 12 | 55 | 0.0 | 3.2 | 0.00 | 0.00 | 0.00 | 78 | 1009.3 |
| 20260509034526 | 12 | 55 | 0.0 | 0.0 | 0.00 | 0.00 | 0.00 | 78 | 1009.4 |
| 20260509033010 | 12 | 56 | 1.6 | 3.2 | 0.00 | 0.00 | 0.00 | 76 | 1009.7 |
| 20260509031508 | 12 | 57 | 1.6 | 6.4 | 0.00 | 0.00 | 0.00 | 76 | 1009.9 |
| 20260509030004 | 12 | 59 | 0.0 | 1.6 | 0.00 | 0.00 | 0.00 | 75 | 1009.9 |
| 20260509024502 | 12 | 58 | 0.0 | 3.2 | 0.00 | 0.00 | 0.00 | 73 | 1010.0 |
| 20260509023003 | 13 | 60 | 0.0 | 4.8 | 0.00 | 0.00 | 0.00 | 71 | 1010.1 |
| 20260509021502 | 13 | 60 | 0.0 | 0.0 | 0.00 | 0.00 | 0.00 | 68 | 1010.3 |
| 20260509020000 | 14 | 59 | 0.0 | 0.0 | 0.00 | 0.00 | 0.00 | 65 | 1009.9 |
| 20260509014600 | 15 | 51 | 0.0 | 0.0 | 0.00 | 0.00 | 0.00 | 63 | 1009.9 |
| 20260509013059 | 15 | 44 | 0.0 | 0.0 | 0.00 | 0.00 | 0.00 | 61 | 1009.7 |
| 20260509011557 | 16 | 44 | 0.0 | 0.0 | 0.00 | 0.00 | 0.00 | 60 | 1009.6 |
| 20260509004620 | 17 | 31 | 0.0 | 6.4 | 0.00 | 0.00 | 0.00 | 54 | 1009.7 |
| 20260509003052 | 18 | 30 | 0.0 | 6.4 | 0.00 | 0.00 | 0.00 | 49 | 1009.9 |
| 20260509001554 | 20 | 29 | 0.0 | 3.2 | 0.00 | 0.00 | 0.00 | 39 | 1009.9 |
| 20260509000050 | 20 | 28 | 0.0 | 6.4 | 0.00 | 0.00 | 0.00 | 39 | 1009.8 |